| time (UTC) | temp F | wind direction | speed knots | gust knots | rain 1hr in | rain 24hr in | rain mn in | humidity % | barometer mb |
| 20260508141558 | 44 | 304 | 4.3 | 8.7 | 0.00 | 0.86 | 0.00 | 98 | 1003.2 |
| 20260508140105 | 44 | 357 | 2.6 | 7.8 | 0.00 | 0.86 | 0.00 | 99 | 1003.3 |
| 20260508134551 | 44 | 317 | 3.5 | 8.7 | 0.00 | 0.86 | 0.00 | 99 | 1003.4 |
| 20260508133104 | 43 | 265 | 2.6 | 7.8 | 0.00 | 0.86 | 0.00 | 99 | 1003.4 |
| 20260508131550 | 43 | 250 | 2.6 | 7.0 | 0.00 | 0.86 | 0.00 | 99 | 1003.6 |
| 20260508130048 | 43 | 285 | 3.5 | 5.2 | 0.00 | 0.86 | 0.00 | 99 | 1003.4 |
| 20260508124548 | 42 | 254 | 1.7 | 4.3 | 0.00 | 0.86 | 0.00 | 99 | 1003.2 |
| 20260508123046 | 42 | 281 | 3.5 | 7.0 | 0.00 | 0.86 | 0.00 | 99 | 1003.1 |
| 20260508121547 | 42 | 244 | 2.6 | 5.2 | 0.00 | 0.86 | 0.00 | 98 | 1003.2 |
| 20260508120045 | 44 | 223 | 1.7 | 3.5 | 0.00 | 0.86 | 0.00 | 99 | 1003.3 |
| 20260508114543 | 43 | 180 | 0.0 | 3.5 | 0.00 | 0.86 | 0.00 | 99 | 1003.4 |
| 20260508113043 | 43 | 300 | 0.9 | 4.3 | 0.00 | 0.86 | 0.00 | 99 | 1003.3 |
| 20260508111546 | 44 | 302 | 0.9 | 2.6 | 0.00 | 0.86 | 0.00 | 99 | 1003.3 |
| 20260508110042 | 44 | 81 | 0.0 | 2.6 | 0.00 | 0.86 | 0.00 | 99 | 1003.3 |
| 20260508104542 | 43 | 81 | 0.0 | 1.7 | 0.00 | 0.86 | 0.00 | 100 | 1003.3 |
| 20260508103048 | 42 | 81 | 0.9 | 3.5 | 0.00 | 0.86 | 0.00 | 100 | 1003.4 |
| 20260508101545 | 41 | 56 | 0.0 | 1.7 | 0.00 | 0.86 | 0.00 | 99 | 1003.3 |
| 20260508100040 | 41 | 56 | 0.0 | 2.6 | 0.00 | 0.86 | 0.00 | 99 | 1003.4 |
| 20260508094538 | 40 | 301 | 0.0 | 0.0 | 0.00 | 0.86 | 0.00 | 99 | 1003.0 |
| 20260508093039 | 40 | 301 | 0.0 | 0.9 | 0.00 | 0.86 | 0.00 | 99 | 1003.2 |
| 20260508091537 | 40 | 301 | 0.0 | 1.7 | 0.00 | 0.86 | 0.00 | 99 | 1002.9 |
| 20260508090038 | 40 | 301 | 0.0 | 0.9 | 0.00 | 0.86 | 0.00 | 99 | 1002.5 |
| 20260508084534 | 40 | 301 | 0.0 | 0.0 | 0.00 | 0.86 | 0.00 | 99 | 1002.9 |
| 20260508083040 | 40 | 301 | 0.0 | 0.9 | 0.00 | 0.86 | 0.00 | 99 | 1002.9 |
| 20260508081532 | 41 | 301 | 0.0 | 1.7 | 0.00 | 0.86 | 0.00 | 99 | 1002.6 |
| 20260508080054 | 41 | 293 | 0.9 | 3.5 | 0.00 | 0.86 | 0.00 | 99 | 1002.5 |
| 20260508074528 | 41 | 326 | 0.9 | 2.6 | 0.00 | 0.86 | 0.00 | 99 | 1002.5 |
| 20260508073028 | 42 | 326 | 0.0 | 2.6 | 0.00 | 0.86 | 0.00 | 99 | 1002.5 |
| 20260508071529 | 42 | 345 | 0.9 | 3.5 | 0.00 | 0.86 | 0.00 | 99 | 1002.5 |
| 20260508070026 | 42 | 318 | 2.6 | 7.8 | 0.00 | 0.86 | 0.00 | 99 | 1002.9 |
| 20260508064538 | 42 | 319 | 1.7 | 4.3 | 0.00 | 0.86 | 0.00 | 99 | 1002.7 |
| 20260508063021 | 43 | 313 | 2.6 | 4.3 | 0.00 | 0.86 | 0.00 | 98 | 1003.0 |
| 20260508061520 | 45 | 352 | 0.9 | 3.5 | 0.00 | 0.86 | 0.00 | 99 | 1002.5 |
| 20260508060017 | 45 | 337 | 0.0 | 2.6 | 0.00 | 0.86 | 0.00 | 99 | 1002.8 |
| 20260508054532 | 45 | 333 | 0.9 | 3.5 | 0.00 | 0.86 | 0.00 | 99 | 1002.9 |
| 20260508053019 | 45 | 350 | 1.7 | 3.5 | 0.00 | 0.86 | 0.00 | 99 | 1002.9 |
| 20260508051515 | 44 | 348 | 0.0 | 1.7 | 0.00 | 0.86 | 0.00 | 99 | 1002.9 |
| 20260508050014 | 44 | 348 | 0.9 | 2.6 | 0.00 | 0.86 | 0.00 | 99 | 1002.8 |
| 20260508044512 | 45 | 346 | 1.7 | 3.5 | 0.00 | 0.86 | 0.00 | 99 | 1002.6 |
| 20260508043009 | 46 | 355 | 1.7 | 3.5 | 0.00 | 0.86 | 0.00 | 99 | 1002.6 |
| 20260508041507 | 46 | 57 | 0.9 | 2.6 | 0.00 | 0.86 | 0.00 | 99 | 1002.6 |
| 20260508040012 | 46 | 57 | 0.0 | 0.0 | 0.00 | 0.86 | 0.00 | 99 | 1003.0 |
| 20260508034504 | 47 | 57 | 0.0 | 0.0 | 0.00 | 0.86 | 0.00 | 99 | 1002.9 |
| 20260508033004 | 47 | 57 | 0.0 | 0.0 | 0.00 | 0.86 | 0.00 | 99 | 1002.9 |
| 20260508031559 | 47 | 57 | 0.0 | 0.0 | 0.00 | 0.86 | 0.00 | 99 | 1003.1 |
| 20260508030057 | 47 | 57 | 0.0 | 0.0 | 0.00 | 0.86 | 0.00 | 99 | 1003.1 |
| 20260508024555 | 48 | 57 | 0.0 | 0.0 | 0.00 | 0.86 | 0.86 | 99 | 1003.1 |
| 20260508023056 | 48 | 57 | 0.0 | 1.7 | 0.00 | 0.86 | 0.86 | 99 | 1003.2 |
| 20260508021555 | 48 | 57 | 0.9 | 2.6 | 0.00 | 0.86 | 0.86 | 99 | 1003.3 |
| 20260508020057 | 48 | 58 | 0.9 | 3.5 | 0.00 | 0.86 | 0.86 | 99 | 1003.5 |
| 20260508014554 | 48 | 69 | 1.7 | 4.3 | 0.01 | 0.86 | 0.86 | 99 | 1003.3 |
| 20260508013052 | 48 | 337 | 1.7 | 4.3 | 0.02 | 0.86 | 0.86 | 98 | 1003.7 |
| 20260508011551 | 49 | 318 | 1.7 | 7.8 | 0.02 | 0.86 | 0.86 | 99 | 1003.4 |
| 20260508010050 | 49 | 283 | 0.9 | 2.6 | 0.02 | 0.86 | 0.86 | 99 | 1003.0 |
| 20260508004552 | 48 | 283 | 0.9 | 3.5 | 0.02 | 0.85 | 0.85 | 99 | 1003.1 |
| 20260508003051 | 48 | 241 | 0.0 | 1.7 | 0.02 | 0.84 | 0.84 | 99 | 1003.2 |
| 20260508001548 | 48 | 241 | 0.0 | 1.7 | 0.02 | 0.84 | 0.84 | 99 | 1003.3 |
| 20260508000052 | 48 | 239 | 0.0 | 1.7 | 0.02 | 0.83 | 0.83 | 99 | 1003.2 |
| 20260507234554 | 48 | 239 | 0.9 | 2.6 | 0.02 | 0.83 | 0.83 | 98 | 1003.1 |
| 20260507233108 | 49 | 225 | 0.9 | 3.5 | 0.02 | 0.83 | 0.83 | 98 | 1003.2 |
| 20260507231547 | 49 | 223 | 0.0 | 6.1 | 0.01 | 0.81 | 0.81 | 98 | 1003.0 |
| 20260507230048 | 48 | 250 | 0.9 | 3.5 | 0.01 | 0.81 | 0.81 | 98 | 1002.9 |
| 20260507224541 | 51 | 248 | 2.6 | 6.1 | 0.01 | 0.81 | 0.81 | 98 | 1003.0 |
| 20260507223053 | 52 | 200 | 0.9 | 5.2 | 0.00 | 0.80 | 0.80 | 98 | 1002.9 |
| 20260507221542 | 53 | 160 | 2.6 | 7.8 | 0.00 | 0.80 | 0.80 | 98 | 1002.8 |
| 20260507220040 | 52 | 160 | 3.5 | 10.4 | 0.00 | 0.80 | 0.80 | 98 | 1002.7 |
| 20260507214539 | 52 | 142 | 3.5 | 8.7 | 0.00 | 0.80 | 0.80 | 98 | 1002.6 |
| 20260507213036 | 53 | 188 | 1.7 | 8.7 | 0.00 | 0.80 | 0.80 | 97 | 1002.5 |
| 20260507211546 | 55 | 211 | 1.7 | 3.5 | 0.00 | 0.80 | 0.80 | 98 | 1002.6 |
| 20260507210052 | 56 | 164 | 1.7 | 7.0 | 0.00 | 0.80 | 0.80 | 99 | 1002.2 |
| 20260507204542 | 55 | 121 | 2.6 | 5.2 | 0.01 | 0.80 | 0.80 | 99 | 1002.1 |
| 20260507203034 | 54 | 142 | 2.6 | 4.3 | 0.02 | 0.80 | 0.80 | 99 | 1002.1 |
| 20260507201533 | 54 | 173 | 2.6 | 9.6 | 0.03 | 0.80 | 0.80 | 98 | 1002.1 |
| 20260507200034 | 54 | 178 | 4.3 | 13.0 | 0.10 | 0.80 | 0.80 | 99 | 1001.6 |
| 20260507194542 | 54 | 105 | 3.5 | 8.7 | 0.15 | 0.80 | 0.80 | 99 | 1001.7 |
| 20260507193028 | 54 | 101 | 3.5 | 7.8 | 0.17 | 0.79 | 0.79 | 99 | 1002.3 |
| 20260507191526 | 53 | 162 | 3.5 | 8.7 | 0.20 | 0.77 | 0.77 | 99 | 1003.0 |
| 20260507190037 | 53 | 137 | 5.2 | 13.9 | 0.18 | 0.70 | 0.70 | 99 | 1003.7 |
| 20260507184526 | 53 | 149 | 5.2 | 11.3 | 0.19 | 0.65 | 0.65 | 98 | 1004.1 |
| 20260507183018 | 53 | 179 | 5.2 | 13.0 | 0.26 | 0.62 | 0.62 | 98 | 1004.7 |
| 20260507181517 | 53 | 129 | 6.1 | 12.2 | 0.36 | 0.56 | 0.56 | 98 | 1005.1 |
| 20260507180019 | 53 | 167 | 7.0 | 13.0 | 0.46 | 0.52 | 0.52 | 97 | 1005.0 |
| 20260507174514 | 53 | 150 | 6.1 | 13.0 | 0.45 | 0.45 | 0.45 | 97 | 1005.4 |
| 20260507173031 | 53 | 176 | 7.0 | 14.8 | 0.35 | 0.35 | 0.35 | 96 | 1005.6 |
| 20260507171510 | 54 | 204 | 5.2 | 13.0 | 0.20 | 0.20 | 0.20 | 95 | 1005.6 |
| 20260507170016 | 56 | 194 | 7.0 | 13.9 | 0.04 | 0.04 | 0.04 | 93 | 1004.8 |
| 20260507164519 | 57 | 136 | 8.7 | 18.2 | 0.00 | 0.00 | 0.00 | 90 | 1004.7 |
| 20260507163005 | 59 | 176 | 8.7 | 19.1 | 0.00 | 0.00 | 0.00 | 88 | 1004.7 |
| 20260507161503 | 59 | 133 | 10.4 | 23.5 | 0.00 | 0.00 | 0.00 | 87 | 1005.2 |
| 20260507160002 | 60 | 131 | 9.6 | 16.5 | 0.00 | 0.00 | 0.00 | 87 | 1005.3 |
| 20260507154601 | 59 | 134 | 12.2 | 24.3 | 0.00 | 0.00 | 0.00 | 87 | 1005.7 |
| 20260507153059 | 60 | 138 | 8.7 | 24.3 | 0.00 | 0.00 | 0.00 | 87 | 1006.0 |
| 20260507151557 | 59 | 130 | 12.2 | 26.1 | 0.00 | 0.00 | 0.00 | 87 | 1006.1 |
| 20260507150053 | 59 | 212 | 8.7 | 23.5 | 0.00 | 0.00 | 0.00 | 87 | 1007.0 |
| 20260507144553 | 60 | 222 | 11.3 | 25.2 | 0.00 | 0.00 | 0.00 | 86 | 1007.3 |